Time,TemperatureF,DewpointF,PressureIn,WindDirection,WindDirectionDegrees,WindSpeedMPH,WindSpeedGustMPH,Humidity,HourlyPrecipIn,Conditions,Clouds,dailyrainin,SoftwareType,DateUTC
2013-08-19 00:00:00,63.3,62.7,30.11,NNE,30,0.0,0.0,98,0.00,,---,0.00,VWS V14.01,2013-08-19 04:00:00,
2013-08-19 00:01:00,63.3,62.7,30.11,NNE,30,0.0,0.0,98,0.00,,---,0.00,VWS V14.01,2013-08-19 04:01:00,
2013-08-19 00:02:00,63.3,62.7,30.11,NNE,30,0.0,0.0,98,0.00,,---,0.00,VWS V14.01,2013-08-19 04:02:00,
2013-08-19 00:07:00,63.1,62.8,30.11,NNE,30,0.0,0.0,99,0.00,,---,0.00,VWS V14.01,2013-08-19 04:07:00,
2013-08-19 00:12:00,63.0,62.7,30.11,NNE,30,0.0,0.0,99,0.00,,---,0.00,VWS V14.01,2013-08-19 04:12:00,
2013-08-19 00:18:00,63.0,62.7,30.11,NNE,30,0.0,0.0,99,0.00,,---,0.00,VWS V14.01,2013-08-19 04:18:00,
2013-08-19 00:23:00,62.9,62.6,30.11,NNE,30,0.0,0.0,99,0.00,,---,0.00,VWS V14.01,2013-08-19 04:23:00,
2013-08-19 00:28:00,62.8,62.5,30.11,NNE,30,0.0,0.0,99,0.00,,---,0.00,VWS V14.01,2013-08-19 04:28:00,
2013-08-19 00:33:00,62.8,62.5,30.11,NNE,30,0.0,0.0,99,0.00,,---,0.00,VWS V14.01,2013-08-19 04:33:00,
2013-08-19 00:38:00,62.7,62.4,30.11,NNE,30,0.0,0.0,99,0.00,,---,0.00,VWS V14.01,2013-08-19 04:38:00,
2013-08-19 00:43:00,62.7,62.4,30.11,NNE,30,0.0,0.0,99,0.00,,---,0.00,VWS V14.01,2013-08-19 04:43:00,
2013-08-19 00:48:00,62.6,62.3,30.11,NNE,30,0.0,0.0,99,0.00,,---,0.00,VWS V14.01,2013-08-19 04:48:00,
2013-08-19 00:53:00,62.6,62.3,30.10,NNE,30,0.0,0.0,99,0.00,,---,0.00,VWS V14.01,2013-08-19 04:53:00,
2013-08-19 00:58:00,62.6,62.3,30.11,NNE,30,0.0,0.0,99,0.00,,---,0.00,VWS V14.01,2013-08-19 04:58:00,
2013-08-19 01:03:00,62.5,62.2,30.10,NNE,30,0.0,0.0,99,0.00,,---,0.00,VWS V14.01,2013-08-19 05:03:00,
2013-08-19 01:08:00,62.5,62.2,30.10,NNE,30,0.0,0.0,99,0.00,,---,0.00,VWS V14.01,2013-08-19 05:08:00,
2013-08-19 01:13:00,62.4,62.1,30.10,NNE,30,0.0,0.0,99,0.00,,---,0.00,VWS V14.01,2013-08-19 05:13:00,
2013-08-19 01:19:00,62.3,62.0,30.10,NNE,30,0.0,0.0,99,0.00,,---,0.00,VWS V14.01,2013-08-19 05:19:00,
2013-08-19 01:24:00,62.2,61.9,30.10,NNE,30,0.0,0.0,99,0.00,,---,0.00,VWS V14.01,2013-08-19 05:24:00,
2013-08-19 01:29:00,62.2,61.9,30.10,NNE,30,0.0,0.0,99,0.00,,---,0.00,VWS V14.01,2013-08-19 05:29:00,
2013-08-19 01:34:00,62.1,61.8,30.10,NNE,30,0.0,0.0,99,0.00,,---,0.00,VWS V14.01,2013-08-19 05:34:00,
2013-08-19 01:39:00,62.1,61.8,30.10,NNE,30,0.0,0.0,99,0.00,,---,0.00,VWS V14.01,2013-08-19 05:39:00,
2013-08-19 01:44:00,62.1,61.8,30.09,NNE,30,0.0,0.0,99,0.00,,---,0.00,VWS V14.01,2013-08-19 05:44:00,
2013-08-19 01:49:00,62.0,61.7,30.09,NNE,30,0.0,0.0,99,0.00,,---,0.00,VWS V14.01,2013-08-19 05:49:00,
2013-08-19 01:54:00,61.9,61.6,30.09,NNE,30,0.0,0.0,99,0.00,,---,0.00,VWS V14.01,2013-08-19 05:54:00,
2013-08-19 02:00:00,61.8,61.5,30.09,NNE,30,0.0,0.0,99,0.00,,---,0.00,VWS V14.01,2013-08-19 06:00:00,
2013-08-19 02:05:00,61.8,61.5,30.10,NNE,30,0.0,0.0,99,0.00,,---,0.00,VWS V14.01,2013-08-19 06:05:00,
2013-08-19 02:10:00,61.7,61.4,30.09,NNE,30,0.0,0.0,99,0.00,,---,0.00,VWS V14.01,2013-08-19 06:10:00,
2013-08-19 02:15:00,61.6,61.3,30.09,NNE,30,0.0,0.0,99,0.00,,---,0.00,VWS V14.01,2013-08-19 06:15:00,
2013-08-19 02:20:00,61.6,61.3,30.09,NNE,30,0.0,0.0,99,0.00,,---,0.00,VWS V14.01,2013-08-19 06:20:00,
2013-08-19 02:25:00,61.5,61.2,30.09,NNE,30,0.0,0.0,99,0.00,,---,0.00,VWS V14.01,2013-08-19 06:25:00,
2013-08-19 02:30:00,61.4,61.1,30.09,NNE,30,0.0,0.0,99,0.00,,---,0.00,VWS V14.01,2013-08-19 06:30:00,
2013-08-19 02:35:00,61.4,61.1,30.09,NNE,30,0.0,0.0,99,0.00,,---,0.00,VWS V14.01,2013-08-19 06:35:00,
2013-08-19 02:40:00,61.4,61.1,30.09,NNE,30,0.0,0.0,99,0.00,,---,0.00,VWS V14.01,2013-08-19 06:40:00,
2013-08-19 02:45:00,61.3,61.0,30.10,NNE,30,0.0,0.0,99,0.00,,---,0.00,VWS V14.01,2013-08-19 06:45:00,
2013-08-19 02:51:00,61.3,61.0,30.10,NNE,30,0.0,0.0,99,0.00,,---,0.00,VWS V14.01,2013-08-19 06:51:00,
2013-08-19 02:56:00,61.3,61.0,30.10,NNE,30,0.0,0.0,99,0.00,,---,0.00,VWS V14.01,2013-08-19 06:56:00,
2013-08-19 03:01:00,61.3,61.0,30.10,NNE,30,0.0,0.0,99,0.00,,---,0.00,VWS V14.01,2013-08-19 07:01:00,
2013-08-19 03:06:00,61.3,61.0,30.09,NNE,30,0.0,0.0,99,0.00,,---,0.00,VWS V14.01,2013-08-19 07:06:00,
2013-08-19 03:11:00,61.2,60.9,30.09,NNE,30,0.0,0.0,99,0.00,,---,0.00,VWS V14.01,2013-08-19 07:11:00,
2013-08-19 03:16:00,61.1,60.8,30.09,NNE,30,0.0,0.0,99,0.00,,---,0.00,VWS V14.01,2013-08-19 07:16:00,
2013-08-19 03:21:00,61.1,60.8,30.09,NNE,30,0.0,0.0,99,0.00,,---,0.00,VWS V14.01,2013-08-19 07:21:00,
2013-08-19 03:26:00,61.1,60.8,30.09,NNE,30,0.0,0.0,99,0.00,,---,0.00,VWS V14.01,2013-08-19 07:26:00,
2013-08-19 03:31:00,60.9,60.6,30.08,NNE,30,0.0,0.0,99,0.00,,---,0.00,VWS V14.01,2013-08-19 07:31:00,
2013-08-19 03:36:00,60.9,60.6,30.09,NNE,30,0.0,0.0,99,0.00,,---,0.00,VWS V14.01,2013-08-19 07:36:00,
2013-08-19 03:41:00,60.8,60.5,30.09,NNE,30,0.0,0.0,99,0.00,,---,0.00,VWS V14.01,2013-08-19 07:41:00,
2013-08-19 03:46:00,60.8,60.5,30.09,NNE,30,0.0,0.0,99,0.00,,---,0.00,VWS V14.01,2013-08-19 07:46:00,
2013-08-19 03:51:00,60.7,60.4,30.09,NNE,30,0.0,0.0,99,0.00,,---,0.00,VWS V14.01,2013-08-19 07:51:00,
2013-08-19 03:56:00,60.7,60.4,30.09,NNE,30,0.0,0.0,99,0.00,,---,0.00,VWS V14.01,2013-08-19 07:56:00,
2013-08-19 04:02:00,60.6,60.3,30.09,NNE,30,0.0,0.0,99,0.00,,---,0.00,VWS V14.01,2013-08-19 08:02:00,
2013-08-19 04:07:00,60.5,60.2,30.09,NNE,30,0.0,0.0,99,0.00,,---,0.00,VWS V14.01,2013-08-19 08:07:00,
2013-08-19 04:12:00,60.5,60.2,30.09,NNE,30,0.0,0.0,99,0.00,,---,0.00,VWS V14.01,2013-08-19 08:12:00,
2013-08-19 04:17:00,60.5,60.2,30.09,NNE,30,0.0,0.0,99,0.00,,---,0.00,VWS V14.01,2013-08-19 08:17:00,
2013-08-19 04:22:00,60.5,60.2,30.09,NNE,30,0.0,0.0,99,0.00,,---,0.00,VWS V14.01,2013-08-19 08:22:00,
2013-08-19 04:27:00,60.4,60.1,30.09,NNE,30,0.0,0.0,99,0.00,,---,0.00,VWS V14.01,2013-08-19 08:27:00,
2013-08-19 04:32:00,60.4,60.1,30.08,NNE,30,0.0,0.0,99,0.00,,---,0.00,VWS V14.01,2013-08-19 08:32:00,
2013-08-19 04:37:00,60.4,60.1,30.08,NNE,30,0.0,0.0,99,0.00,,---,0.00,VWS V14.01,2013-08-19 08:37:00,
2013-08-19 04:42:00,60.4,60.1,30.09,NNE,30,0.0,0.0,99,0.00,,---,0.00,VWS V14.01,2013-08-19 08:42:00,
2013-08-19 04:47:00,60.4,60.1,30.09,NNE,30,0.0,0.0,99,0.00,,---,0.00,VWS V14.01,2013-08-19 08:47:00,
2013-08-19 04:52:00,60.4,60.1,30.09,NNE,30,0.0,0.0,99,0.00,,---,0.00,VWS V14.01,2013-08-19 08:52:00,
2013-08-19 04:57:00,60.3,60.0,30.09,NNE,30,0.0,0.0,99,0.00,,---,0.00,VWS V14.01,2013-08-19 08:57:00,
2013-08-19 05:02:00,60.3,60.0,30.09,NNE,30,0.0,0.0,99,0.00,,---,0.00,VWS V14.01,2013-08-19 09:02:00,
2013-08-19 05:07:00,60.3,60.0,30.09,NNE,30,0.0,0.0,99,0.00,,---,0.00,VWS V14.01,2013-08-19 09:07:00,
2013-08-19 05:12:00,60.2,59.9,30.08,NNE,30,0.0,0.0,99,0.00,,---,0.00,VWS V14.01,2013-08-19 09:12:00,
2013-08-19 05:17:00,60.2,59.9,30.08,NNE,30,0.0,0.0,99,0.00,,---,0.00,VWS V14.01,2013-08-19 09:17:00,
2013-08-19 05:23:00,60.2,59.9,30.09,NNE,30,0.0,0.0,99,0.00,,---,0.00,VWS V14.01,2013-08-19 09:23:00,
2013-08-19 05:28:00,60.2,59.9,30.08,NNE,30,0.0,0.0,99,0.00,,---,0.00,VWS V14.01,2013-08-19 09:28:00,
2013-08-19 05:33:00,60.2,59.9,30.08,NNE,30,0.0,0.0,99,0.00,,---,0.00,VWS V14.01,2013-08-19 09:33:00,
2013-08-19 05:38:00,60.2,59.9,30.08,NNE,30,0.0,0.0,99,0.00,,---,0.00,VWS V14.01,2013-08-19 09:38:00,
2013-08-19 05:43:00,60.2,59.9,30.09,NNE,30,0.0,0.0,99,0.00,,---,0.00,VWS V14.01,2013-08-19 09:43:00,
2013-08-19 05:48:00,60.2,59.9,30.09,NNE,30,0.0,0.0,99,0.00,,---,0.00,VWS V14.01,2013-08-19 09:48:00,
2013-08-19 05:53:00,60.0,59.7,30.09,NNE,30,0.0,0.0,99,0.00,,---,0.00,VWS V14.01,2013-08-19 09:53:00,
2013-08-19 05:58:00,60.0,59.7,30.09,NNE,30,0.0,0.0,99,0.00,,---,0.00,VWS V14.01,2013-08-19 09:58:00,
2013-08-19 06:03:00,60.0,59.7,30.09,NNE,30,0.0,0.0,99,0.00,,---,0.00,VWS V14.01,2013-08-19 10:03:00,
2013-08-19 06:09:00,59.9,59.6,30.10,NNE,30,0.0,0.0,99,0.00,,---,0.00,VWS V14.01,2013-08-19 10:09:00,
2013-08-19 06:14:00,60.0,59.7,30.10,NNE,30,0.0,0.0,99,0.00,,---,0.00,VWS V14.01,2013-08-19 10:14:00,
2013-08-19 06:19:00,59.9,59.6,30.10,NNE,30,0.0,0.0,99,0.00,,---,0.00,VWS V14.01,2013-08-19 10:19:00,
2013-08-19 06:24:00,59.9,59.6,30.10,NNE,30,0.0,0.0,99,0.00,,---,0.00,VWS V14.01,2013-08-19 10:24:00,
2013-08-19 06:29:00,59.9,59.6,30.10,NNE,30,0.0,0.0,99,0.00,,---,0.00,VWS V14.01,2013-08-19 10:29:00,
2013-08-19 06:34:00,59.9,59.6,30.10,NNE,30,0.0,0.0,99,0.00,,---,0.00,VWS V14.01,2013-08-19 10:34:00,
2013-08-19 06:39:00,59.9,59.6,30.09,NNE,30,0.0,0.0,99,0.00,,---,0.00,VWS V14.01,2013-08-19 10:39:00,
2013-08-19 06:44:00,59.8,59.5,30.09,NNE,30,0.0,0.0,99,0.00,,---,0.00,VWS V14.01,2013-08-19 10:44:00,
2013-08-19 06:49:00,59.8,59.5,30.09,NNE,30,0.0,0.0,99,0.00,,---,0.00,VWS V14.01,2013-08-19 10:49:00,
2013-08-19 06:54:00,59.8,59.5,30.10,NNE,30,0.0,0.0,99,0.00,,---,0.00,VWS V14.01,2013-08-19 10:54:00,
2013-08-19 06:59:00,59.8,59.5,30.10,NNE,30,0.0,0.0,99,0.00,,---,0.00,VWS V14.01,2013-08-19 10:59:00,
2013-08-19 07:04:00,59.9,59.6,30.10,NNE,30,0.0,0.0,99,0.00,,---,0.00,VWS V14.01,2013-08-19 11:04:00,
2013-08-19 07:10:00,59.9,59.6,30.10,NNE,30,0.0,0.0,99,0.00,,---,0.00,VWS V14.01,2013-08-19 11:10:00,
2013-08-19 07:15:00,60.0,59.7,30.09,NNE,30,0.0,0.0,99,0.00,,---,0.00,VWS V14.01,2013-08-19 11:15:00,
2013-08-19 07:20:00,60.1,59.8,30.09,NNE,30,0.0,0.0,99,0.00,,---,0.00,VWS V14.01,2013-08-19 11:20:00,
2013-08-19 07:25:00,60.2,60.2,30.10,NNE,30,0.0,0.0,100,0.00,,---,0.00,VWS V14.01,2013-08-19 11:25:00,
2013-08-19 07:30:00,60.4,60.1,30.10,NNE,30,0.0,0.0,99,0.00,,---,0.00,VWS V14.01,2013-08-19 11:30:00,
2013-08-19 07:35:00,60.5,60.2,30.10,NNE,30,0.0,0.0,99,0.00,,---,0.00,VWS V14.01,2013-08-19 11:35:00,
2013-08-19 07:40:00,60.7,60.7,30.10,NNE,30,0.0,0.0,100,0.00,,---,0.00,VWS V14.01,2013-08-19 11:40:00,
2013-08-19 07:45:00,60.7,60.7,30.10,NNE,30,0.0,0.0,100,0.00,,---,0.00,VWS V14.01,2013-08-19 11:45:00,
2013-08-19 07:50:00,60.7,60.7,30.09,NNE,30,0.0,0.0,100,0.00,,---,0.00,VWS V14.01,2013-08-19 11:50:00,
2013-08-19 07:55:00,60.7,60.7,30.09,NNE,30,0.0,0.0,100,0.00,,---,0.00,VWS V14.01,2013-08-19 11:55:00,
2013-08-19 08:00:00,60.8,60.8,30.09,NNE,30,0.0,0.0,100,0.00,,---,0.00,VWS V14.01,2013-08-19 12:00:00,
2013-08-19 08:05:00,60.7,60.4,30.09,NNE,30,0.0,0.0,99,0.00,,---,0.00,VWS V14.01,2013-08-19 12:05:00,
2013-08-19 08:10:00,60.7,60.4,30.09,NNE,30,0.0,0.0,99,0.00,,---,0.00,VWS V14.01,2013-08-19 12:10:00,
2013-08-19 08:16:00,60.6,60.3,30.09,NNE,30,0.0,0.0,99,0.00,,---,0.00,VWS V14.01,2013-08-19 12:16:00,
2013-08-19 08:21:00,60.7,60.4,30.09,NNE,30,0.0,0.0,99,0.00,,---,0.00,VWS V14.01,2013-08-19 12:21:00,
2013-08-19 08:26:00,60.9,60.6,30.09,NNE,30,0.0,0.0,99,0.00,,---,0.00,VWS V14.01,2013-08-19 12:26:00,
2013-08-19 08:31:00,61.0,60.7,30.08,NNE,30,0.0,0.0,99,0.00,,---,0.00,VWS V14.01,2013-08-19 12:31:00,
2013-08-19 08:36:00,61.1,60.8,30.08,NNE,30,0.0,0.0,99,0.00,,---,0.00,VWS V14.01,2013-08-19 12:36:00,
2013-08-19 08:41:00,61.3,61.0,30.08,NNE,30,0.0,0.0,99,0.00,,---,0.00,VWS V14.01,2013-08-19 12:41:00,
2013-08-19 08:46:00,61.4,61.1,30.08,NNE,30,0.0,0.0,99,0.00,,---,0.00,VWS V14.01,2013-08-19 12:46:00,
2013-08-19 08:51:00,61.7,61.4,30.08,NNE,30,0.0,0.0,99,0.00,,---,0.00,VWS V14.01,2013-08-19 12:51:00,
2013-08-19 08:56:00,61.9,61.6,30.08,NNE,30,0.0,0.0,99,0.00,,---,0.00,VWS V14.01,2013-08-19 12:56:00,
2013-08-19 09:01:00,62.5,62.2,30.08,NNE,30,0.0,0.0,99,0.00,,---,0.00,VWS V14.01,2013-08-19 13:01:00,
2013-08-19 09:06:00,62.9,62.6,30.08,NNE,30,0.0,0.0,99,0.00,,---,0.00,VWS V14.01,2013-08-19 13:06:00,
2013-08-19 09:11:00,63.2,62.9,30.08,NNE,30,0.0,0.0,99,0.00,,---,0.00,VWS V14.01,2013-08-19 13:11:00,
2013-08-19 09:16:00,63.6,63.0,30.08,NNE,30,0.0,0.0,98,0.00,,---,0.00,VWS V14.01,2013-08-19 13:16:00,
2013-08-19 09:22:00,64.1,63.2,30.08,NNE,30,0.0,0.0,97,0.00,,---,0.00,VWS V14.01,2013-08-19 13:22:00,
2013-08-19 09:27:00,64.5,63.3,30.08,NNE,30,0.0,0.0,96,0.00,,---,0.00,VWS V14.01,2013-08-19 13:27:00,
2013-08-19 09:32:00,64.9,63.4,30.08,NNE,30,0.0,0.0,95,0.00,,---,0.00,VWS V14.01,2013-08-19 13:32:00,
2013-08-19 09:37:00,65.2,63.4,30.08,NNE,30,0.0,0.0,94,0.00,,---,0.00,VWS V14.01,2013-08-19 13:37:00,
2013-08-19 09:42:00,65.3,63.2,30.09,NNE,30,0.0,0.0,93,0.00,,---,0.00,VWS V14.01,2013-08-19 13:42:00,
2013-08-19 09:47:00,65.5,63.4,30.08,NNE,30,0.0,0.0,93,0.00,,---,0.00,VWS V14.01,2013-08-19 13:47:00,
2013-08-19 09:52:00,65.7,63.3,30.08,NNE,30,0.0,0.0,92,0.00,,---,0.00,VWS V14.01,2013-08-19 13:52:00,
2013-08-19 09:57:00,66.0,63.9,30.08,NNE,30,0.0,0.0,93,0.00,,---,0.00,VWS V14.01,2013-08-19 13:57:00,
2013-08-19 10:02:00,66.4,64.0,30.08,NNE,30,0.0,0.0,92,0.00,,---,0.00,VWS V14.01,2013-08-19 14:02:00,
2013-08-19 10:08:00,67.0,64.6,30.08,NNE,30,0.0,0.0,92,0.00,,---,0.00,VWS V14.01,2013-08-19 14:08:00,
2013-08-19 10:13:00,67.4,64.7,30.08,WNW,288,0.0,2.0,91,0.00,,---,0.00,VWS V14.01,2013-08-19 14:13:00,
2013-08-19 10:18:00,67.7,64.3,30.08,WNW,288,0.0,2.0,89,0.00,,---,0.00,VWS V14.01,2013-08-19 14:18:00,
2013-08-19 10:23:00,67.9,64.5,30.07,WNW,288,0.0,2.0,89,0.00,,---,0.00,VWS V14.01,2013-08-19 14:23:00,
2013-08-19 10:28:00,67.9,64.2,30.07,WNW,288,0.0,2.0,88,0.00,,---,0.00,VWS V14.01,2013-08-19 14:28:00,
2013-08-19 10:33:00,67.9,64.2,30.07,WNW,288,0.0,0.0,88,0.00,,---,0.00,VWS V14.01,2013-08-19 14:33:00,
2013-08-19 10:38:00,67.9,64.2,30.07,WNW,288,0.0,0.0,88,0.00,,---,0.00,VWS V14.01,2013-08-19 14:38:00,
2013-08-19 10:43:00,68.1,64.4,30.08,WNW,288,0.0,0.0,88,0.00,,---,0.00,VWS V14.01,2013-08-19 14:43:00,
2013-08-19 10:48:00,68.1,64.1,30.08,WNW,288,0.0,0.0,87,0.00,,---,0.00,VWS V14.01,2013-08-19 14:48:00,
2013-08-19 10:53:00,68.3,64.0,30.08,WNW,288,0.0,0.0,86,0.00,,---,0.00,VWS V14.01,2013-08-19 14:53:00,
2013-08-19 10:58:00,68.5,64.2,30.07,WNW,288,0.0,0.0,86,0.00,,---,0.00,VWS V14.01,2013-08-19 14:58:00,
2013-08-19 11:03:00,68.6,64.6,30.07,WNW,288,0.0,0.0,87,0.00,,---,0.00,VWS V14.01,2013-08-19 15:03:00,
2013-08-19 11:08:00,68.6,64.6,30.07,WNW,288,0.0,0.0,87,0.00,,---,0.00,VWS V14.01,2013-08-19 15:08:00,
2013-08-19 11:13:00,68.8,65.1,30.07,WNW,288,0.0,0.0,88,0.00,,---,0.00,VWS V14.01,2013-08-19 15:13:00,
2013-08-19 11:19:00,69.4,65.4,30.07,SW,221,0.0,1.0,87,0.00,,---,0.00,VWS V14.01,2013-08-19 15:19:00,
2013-08-19 11:24:00,70.1,66.4,30.07,SW,221,0.0,1.0,88,0.00,,---,0.00,VWS V14.01,2013-08-19 15:24:00,
2013-08-19 11:29:00,70.3,64.9,30.07,SW,221,0.0,1.0,83,0.00,,---,0.00,VWS V14.01,2013-08-19 15:29:00,
2013-08-19 11:34:00,70.4,65.0,30.07,SW,221,0.0,0.0,83,0.00,,---,0.00,VWS V14.01,2013-08-19 15:34:00,
2013-08-19 11:39:00,70.5,65.4,30.06,SW,221,0.0,0.0,84,0.00,,---,0.00,VWS V14.01,2013-08-19 15:39:00,
2013-08-19 11:44:00,70.5,64.8,30.06,SW,221,0.0,0.0,82,0.00,,---,0.00,VWS V14.01,2013-08-19 15:44:00,
2013-08-19 11:49:00,70.4,64.7,30.07,SW,221,0.0,0.0,82,0.00,,---,0.00,VWS V14.01,2013-08-19 15:49:00,
2013-08-19 11:54:00,70.4,64.7,30.07,SW,221,0.0,1.0,82,0.00,,---,0.00,VWS V14.01,2013-08-19 15:54:00,
2013-08-19 11:59:00,70.7,65.6,30.06,SW,221,0.0,1.0,84,0.00,,---,0.00,VWS V14.01,2013-08-19 15:59:00,
2013-08-19 12:04:00,71.0,65.6,30.06,SW,221,0.0,0.0,83,0.00,,---,0.00,VWS V14.01,2013-08-19 16:04:00,
2013-08-19 12:09:00,70.8,64.7,30.06,SSW,202,0.0,1.0,81,0.00,,---,0.00,VWS V14.01,2013-08-19 16:09:00,
2013-08-19 12:14:00,70.8,65.4,30.06,SSW,202,0.0,1.0,83,0.00,,---,0.00,VWS V14.01,2013-08-19 16:14:00,
2013-08-19 12:20:00,70.9,65.1,30.06,SW,219,0.0,1.0,82,0.00,,---,0.00,VWS V14.01,2013-08-19 16:20:00,
2013-08-19 12:25:00,70.9,64.8,30.05,SW,219,0.0,1.0,81,0.00,,---,0.00,VWS V14.01,2013-08-19 16:25:00,
2013-08-19 12:30:00,71.2,65.1,30.05,SW,219,0.0,1.0,81,0.00,,---,0.00,VWS V14.01,2013-08-19 16:30:00,
2013-08-19 12:35:00,71.0,64.9,30.05,SW,219,0.0,0.0,81,0.00,,---,0.00,VWS V14.01,2013-08-19 16:35:00,
2013-08-19 12:40:00,70.8,65.0,30.05,SW,219,0.0,0.0,82,0.00,,---,0.00,VWS V14.01,2013-08-19 16:40:00,
2013-08-19 12:45:00,71.0,65.6,30.05,SW,219,0.0,0.0,83,0.00,,---,0.00,VWS V14.01,2013-08-19 16:45:00,
2013-08-19 12:50:00,71.0,64.9,30.05,SW,219,0.0,0.0,81,0.00,,---,0.00,VWS V14.01,2013-08-19 16:50:00,
2013-08-19 12:55:00,71.0,64.9,30.05,SW,219,0.0,0.0,81,0.00,,---,0.00,VWS V14.01,2013-08-19 16:55:00,
2013-08-19 13:00:00,70.9,64.8,30.05,SW,219,0.0,0.0,81,0.00,,---,0.00,VWS V14.01,2013-08-19 17:00:00,
2013-08-19 13:05:00,70.8,64.0,30.05,SW,219,0.0,0.0,79,0.00,,---,0.00,VWS V14.01,2013-08-19 17:05:00,
2013-08-19 13:10:00,70.8,64.7,30.05,SW,219,0.0,0.0,81,0.00,,---,0.00,VWS V14.01,2013-08-19 17:10:00,
2013-08-19 13:15:00,70.9,64.8,30.04,SW,219,0.0,0.0,81,0.00,,---,0.00,VWS V14.01,2013-08-19 17:15:00,
2013-08-19 13:20:00,71.0,64.9,30.05,SW,219,0.0,0.0,81,0.00,,---,0.00,VWS V14.01,2013-08-19 17:20:00,
2013-08-19 13:25:00,71.1,63.9,30.05,SW,219,0.0,0.0,78,0.00,,---,0.00,VWS V14.01,2013-08-19 17:25:00,
2013-08-19 13:30:00,71.3,64.5,30.05,SW,219,0.0,0.0,79,0.00,,---,0.00,VWS V14.01,2013-08-19 17:30:00,
2013-08-19 13:35:00,71.3,64.5,30.04,SW,219,0.0,0.0,79,0.00,,---,0.00,VWS V14.01,2013-08-19 17:35:00,
2013-08-19 13:41:00,71.1,63.9,30.04,SW,219,0.0,0.0,78,0.00,,---,0.00,VWS V14.01,2013-08-19 17:41:00,
2013-08-19 13:46:00,71.1,63.9,30.04,SW,219,0.0,0.0,78,0.00,,---,0.00,VWS V14.01,2013-08-19 17:46:00,
2013-08-19 13:51:00,71.2,64.0,30.04,SW,219,0.0,0.0,78,0.00,,---,0.00,VWS V14.01,2013-08-19 17:51:00,
2013-08-19 13:56:00,71.2,64.4,30.04,SW,219,0.0,0.0,79,0.00,,---,0.00,VWS V14.01,2013-08-19 17:56:00,
2013-08-19 14:01:00,71.2,64.7,30.05,SW,219,0.0,0.0,80,0.00,,---,0.00,VWS V14.01,2013-08-19 18:01:00,
2013-08-19 14:06:00,70.9,63.7,30.05,SW,219,0.0,0.0,78,0.00,,---,0.00,VWS V14.01,2013-08-19 18:06:00,
2013-08-19 14:11:00,70.8,63.6,30.05,SW,219,0.0,0.0,78,0.00,,---,0.00,VWS V14.01,2013-08-19 18:11:00,
2013-08-19 14:16:00,70.7,64.2,30.05,SW,219,0.0,0.0,80,0.00,,---,0.00,VWS V14.01,2013-08-19 18:16:00,
2013-08-19 14:21:00,70.5,63.3,30.05,SW,219,0.0,0.0,78,0.00,,---,0.00,VWS V14.01,2013-08-19 18:21:00,
2013-08-19 14:26:00,70.3,63.1,30.05,SW,219,0.0,0.0,78,0.00,,---,0.00,VWS V14.01,2013-08-19 18:26:00,
2013-08-19 14:31:00,70.2,62.7,30.05,SW,219,0.0,0.0,77,0.00,,---,0.00,VWS V14.01,2013-08-19 18:31:00,
2013-08-19 14:36:00,70.3,63.5,30.05,SW,219,0.0,0.0,79,0.00,,---,0.00,VWS V14.01,2013-08-19 18:36:00,
2013-08-19 14:41:00,70.4,63.6,30.05,SW,219,0.0,0.0,79,0.00,,---,0.00,VWS V14.01,2013-08-19 18:41:00,
2013-08-19 14:46:00,70.5,63.3,30.04,SW,219,0.0,0.0,78,0.00,,---,0.00,VWS V14.01,2013-08-19 18:46:00,
2013-08-19 14:51:00,70.7,63.5,30.03,SW,219,0.0,0.0,78,0.00,,---,0.00,VWS V14.01,2013-08-19 18:51:00,
2013-08-19 14:56:00,70.7,62.8,30.03,SW,219,0.0,0.0,76,0.00,,---,0.00,VWS V14.01,2013-08-19 18:56:00,
2013-08-19 15:01:00,70.5,63.0,30.03,SW,219,0.0,0.0,77,0.00,,---,0.00,VWS V14.01,2013-08-19 19:01:00,
2013-08-19 15:06:00,70.4,63.6,30.03,SW,219,0.0,0.0,79,0.00,,---,0.00,VWS V14.01,2013-08-19 19:06:00,
2013-08-19 15:11:00,70.3,63.5,30.03,SW,219,0.0,0.0,79,0.00,,---,0.00,VWS V14.01,2013-08-19 19:11:00,
2013-08-19 15:17:00,70.2,63.8,30.03,SW,219,0.0,0.0,80,0.00,,---,0.00,VWS V14.01,2013-08-19 19:17:00,
2013-08-19 15:22:00,70.2,64.1,30.03,SW,219,0.0,0.0,81,0.00,,---,0.00,VWS V14.01,2013-08-19 19:22:00,
2013-08-19 15:27:00,70.1,64.0,30.03,SW,219,0.0,0.0,81,0.00,,---,0.00,VWS V14.01,2013-08-19 19:27:00,
2013-08-19 15:32:00,69.9,63.8,30.04,SW,219,0.0,0.0,81,0.00,,---,0.00,VWS V14.01,2013-08-19 19:32:00,
2013-08-19 15:37:00,69.9,64.5,30.03,SW,219,0.0,0.0,83,0.00,,---,0.00,VWS V14.01,2013-08-19 19:37:00,
2013-08-19 15:42:00,69.6,64.6,30.03,SW,219,0.0,0.0,84,0.00,,---,0.00,VWS V14.01,2013-08-19 19:42:00,
2013-08-19 15:47:00,69.4,64.7,30.03,SW,219,0.0,0.0,85,0.00,,---,0.00,VWS V14.01,2013-08-19 19:47:00,
2013-08-19 15:52:00,69.3,64.6,30.03,SW,219,0.0,0.0,85,0.00,,---,0.00,VWS V14.01,2013-08-19 19:52:00,
2013-08-19 15:57:00,69.2,64.8,30.03,SW,219,0.0,0.0,86,0.00,,---,0.00,VWS V14.01,2013-08-19 19:57:00,
2013-08-19 16:02:00,69.1,64.7,30.03,SW,219,0.0,0.0,86,0.00,,---,0.00,VWS V14.01,2013-08-19 20:02:00,
2013-08-19 16:07:00,68.9,64.9,30.03,SW,219,0.0,0.0,87,0.00,,---,0.00,VWS V14.01,2013-08-19 20:07:00,
2013-08-19 16:12:00,69.0,65.3,30.03,SW,219,0.0,0.0,88,0.00,,---,0.00,VWS V14.01,2013-08-19 20:12:00,
2013-08-19 16:18:00,69.0,65.0,30.04,SW,222,0.0,0.0,87,0.00,,---,0.00,VWS V14.01,2013-08-19 20:18:00,
2013-08-19 16:23:00,68.9,64.9,30.04,SSW,199,0.0,0.0,87,0.00,,---,0.00,VWS V14.01,2013-08-19 20:23:00,
2013-08-19 16:28:00,68.9,64.9,30.04,SSW,199,0.0,0.0,87,0.00,,---,0.00,VWS V14.01,2013-08-19 20:28:00,
2013-08-19 16:33:00,68.8,64.8,30.04,SSW,199,0.0,0.0,87,0.00,,---,0.00,VWS V14.01,2013-08-19 20:33:00,
2013-08-19 16:38:00,68.9,65.2,30.04,SSW,199,0.0,0.0,88,0.00,,---,0.00,VWS V14.01,2013-08-19 20:38:00,
2013-08-19 16:43:00,68.9,65.2,30.04,SSW,199,0.0,0.0,88,0.00,,---,0.00,VWS V14.01,2013-08-19 20:43:00,
2013-08-19 16:48:00,69.0,65.3,30.03,SSW,199,0.0,0.0,88,0.00,,---,0.00,VWS V14.01,2013-08-19 20:48:00,
2013-08-19 16:53:00,69.0,65.3,30.03,SSW,199,0.0,0.0,88,0.00,,---,0.00,VWS V14.01,2013-08-19 20:53:00,
2013-08-19 16:59:00,69.1,65.4,30.03,SSW,199,0.0,0.0,88,0.00,,---,0.00,VWS V14.01,2013-08-19 20:59:00,
2013-08-19 17:04:00,69.2,65.5,30.03,SSW,199,0.0,0.0,88,0.00,,---,0.00,VWS V14.01,2013-08-19 21:04:00,
2013-08-19 17:09:00,69.3,65.3,30.03,SSW,199,0.0,0.0,87,0.00,,---,0.00,VWS V14.01,2013-08-19 21:09:00,
2013-08-19 17:14:00,69.4,65.4,30.03,SSW,199,0.0,0.0,87,0.00,,---,0.00,VWS V14.01,2013-08-19 21:14:00,
2013-08-19 17:19:00,69.6,65.9,30.03,SSW,199,0.0,0.0,88,0.00,,---,0.00,VWS V14.01,2013-08-19 21:19:00,
2013-08-19 17:24:00,69.8,66.1,30.02,SSW,199,0.0,0.0,88,0.00,,---,0.00,VWS V14.01,2013-08-19 21:24:00,
2013-08-19 17:29:00,69.9,65.9,30.02,SSW,199,0.0,0.0,87,0.00,,---,0.00,VWS V14.01,2013-08-19 21:29:00,
2013-08-19 17:34:00,70.0,66.0,30.02,SSW,199,0.0,0.0,87,0.00,,---,0.00,VWS V14.01,2013-08-19 21:34:00,
2013-08-19 17:39:00,70.1,66.1,30.03,SSW,199,0.0,0.0,87,0.00,,---,0.00,VWS V14.01,2013-08-19 21:39:00,
2013-08-19 17:44:00,70.3,66.2,30.03,SSW,199,0.0,0.0,87,0.00,,---,0.00,VWS V14.01,2013-08-19 21:44:00,
2013-08-19 17:50:00,70.2,65.5,30.02,SSW,199,0.0,0.0,85,0.00,,---,0.00,VWS V14.01,2013-08-19 21:50:00,
2013-08-19 17:55:00,70.1,65.4,30.02,SSW,199,0.0,0.0,85,0.00,,---,0.00,VWS V14.01,2013-08-19 21:55:00,
2013-08-19 18:00:00,69.9,64.8,30.02,SSW,199,0.0,0.0,84,0.00,,---,0.00,VWS V14.01,2013-08-19 22:00:00,
2013-08-19 18:05:00,69.8,65.1,30.03,SSW,199,0.0,0.0,85,0.00,,---,0.00,VWS V14.01,2013-08-19 22:05:00,
2013-08-19 18:10:00,69.7,65.0,30.02,SSW,199,0.0,0.0,85,0.00,,---,0.00,VWS V14.01,2013-08-19 22:10:00,
2013-08-19 18:15:00,69.7,65.3,30.02,SSW,199,0.0,0.0,86,0.00,,---,0.00,VWS V14.01,2013-08-19 22:15:00,
2013-08-19 18:20:00,69.7,65.3,30.02,SSW,199,0.0,0.0,86,0.00,,---,0.00,VWS V14.01,2013-08-19 22:20:00,
2013-08-19 18:25:00,69.7,65.3,30.02,SSW,199,0.0,0.0,86,0.00,,---,0.00,VWS V14.01,2013-08-19 22:25:00,
2013-08-19 18:30:00,69.6,65.2,30.02,SSW,199,0.0,0.0,86,0.00,,---,0.00,VWS V14.01,2013-08-19 22:30:00,
2013-08-19 18:35:00,69.5,65.1,30.02,SSW,199,0.0,0.0,86,0.00,,---,0.00,VWS V14.01,2013-08-19 22:35:00,
2013-08-19 18:40:00,69.5,65.5,30.02,SSW,199,0.0,0.0,87,0.00,,---,0.00,VWS V14.01,2013-08-19 22:40:00,
2013-08-19 18:45:00,69.4,65.7,30.02,SSW,199,0.0,0.0,88,0.00,,---,0.00,VWS V14.01,2013-08-19 22:45:00,
2013-08-19 18:50:00,69.3,65.3,30.02,SSW,199,0.0,0.0,87,0.00,,---,0.00,VWS V14.01,2013-08-19 22:50:00,
2013-08-19 18:55:00,69.2,65.5,30.02,SSW,199,0.0,0.0,88,0.00,,---,0.00,VWS V14.01,2013-08-19 22:55:00,
2013-08-19 19:00:00,69.0,65.3,30.02,SSW,199,0.0,0.0,88,0.00,,---,0.00,VWS V14.01,2013-08-19 23:00:00,
2013-08-19 19:05:00,68.8,65.4,30.03,SSW,199,0.0,0.0,89,0.00,,---,0.00,VWS V14.01,2013-08-19 23:05:00,
2013-08-19 19:10:00,68.7,65.7,30.03,SSW,199,0.0,0.0,90,0.00,,---,0.00,VWS V14.01,2013-08-19 23:10:00,
2013-08-19 19:16:00,68.5,65.5,30.03,SSW,199,0.0,0.0,90,0.00,,---,0.00,VWS V14.01,2013-08-19 23:16:00,
2013-08-19 19:21:00,68.4,65.7,30.03,SSW,199,0.0,0.0,91,0.00,,---,0.00,VWS V14.01,2013-08-19 23:21:00,
2013-08-19 19:26:00,68.4,65.7,30.03,SSW,199,0.0,0.0,91,0.00,,---,0.00,VWS V14.01,2013-08-19 23:26:00,
2013-08-19 19:31:00,68.3,65.6,30.03,SSW,199,0.0,0.0,91,0.00,,---,0.00,VWS V14.01,2013-08-19 23:31:00,
2013-08-19 19:36:00,68.2,65.5,30.03,SSW,199,0.0,0.0,91,0.00,,---,0.00,VWS V14.01,2013-08-19 23:36:00,
2013-08-19 19:41:00,68.2,65.8,30.03,SSW,199,0.0,0.0,92,0.00,,---,0.00,VWS V14.01,2013-08-19 23:41:00,
2013-08-19 19:46:00,68.1,65.7,30.02,SSW,199,0.0,0.0,92,0.00,,---,0.00,VWS V14.01,2013-08-19 23:46:00,
2013-08-19 19:51:00,68.1,65.7,30.02,SSW,199,0.0,0.0,92,0.00,,---,0.00,VWS V14.01,2013-08-19 23:51:00,
2013-08-19 19:56:00,68.0,65.9,30.02,SSW,199,0.0,0.0,93,0.00,,---,0.00,VWS V14.01,2013-08-19 23:56:00,
2013-08-19 20:01:00,68.0,65.9,30.02,SSW,199,0.0,0.0,93,0.00,,---,0.00,VWS V14.01,2013-08-20 00:01:00,
2013-08-19 20:06:00,67.9,65.8,30.02,SSW,199,0.0,0.0,93,0.00,,---,0.00,VWS V14.01,2013-08-20 00:06:00,
2013-08-19 20:12:00,67.9,65.8,30.02,SSW,199,0.0,0.0,93,0.00,,---,0.00,VWS V14.01,2013-08-20 00:12:00,
2013-08-19 20:17:00,67.8,65.7,30.02,SSW,199,0.0,0.0,93,0.00,,---,0.00,VWS V14.01,2013-08-20 00:17:00,
2013-08-19 20:22:00,67.8,65.7,30.02,SSW,199,0.0,0.0,93,0.00,,---,0.00,VWS V14.01,2013-08-20 00:22:00,
2013-08-19 20:27:00,67.7,65.6,30.02,SSW,199,0.0,0.0,93,0.00,,---,0.00,VWS V14.01,2013-08-20 00:27:00,
2013-08-19 20:32:00,67.7,65.9,30.02,SSW,199,0.0,0.0,94,0.00,,---,0.00,VWS V14.01,2013-08-20 00:32:00,
2013-08-19 20:37:00,67.6,65.8,30.02,SSW,199,0.0,0.0,94,0.00,,---,0.00,VWS V14.01,2013-08-20 00:37:00,
2013-08-19 20:42:00,67.5,65.7,30.02,SSW,199,0.0,0.0,94,0.00,,---,0.00,VWS V14.01,2013-08-20 00:42:00,
2013-08-19 20:47:00,67.4,65.6,30.03,SSW,199,0.0,0.0,94,0.00,,---,0.00,VWS V14.01,2013-08-20 00:47:00,
2013-08-19 20:53:00,67.3,65.5,30.03,SSW,199,0.0,0.0,94,0.00,,---,0.00,VWS V14.01,2013-08-20 00:53:00,
2013-08-19 20:58:00,67.2,65.4,30.03,SSW,199,0.0,0.0,94,0.00,,---,0.00,VWS V14.01,2013-08-20 00:58:00,
2013-08-19 21:03:00,67.0,65.5,30.02,SSW,199,0.0,0.0,95,0.00,,---,0.00,VWS V14.01,2013-08-20 01:03:00,
2013-08-19 21:08:00,66.9,65.4,30.02,SSW,199,0.0,0.0,95,0.00,,---,0.00,VWS V14.01,2013-08-20 01:08:00,
2013-08-19 21:13:00,66.8,65.3,30.02,SSW,199,0.0,0.0,95,0.00,,---,0.00,VWS V14.01,2013-08-20 01:13:00,
2013-08-19 21:18:00,66.7,65.5,30.03,SSW,199,0.0,0.0,96,0.00,,---,0.00,VWS V14.01,2013-08-20 01:18:00,
2013-08-19 21:23:00,66.7,65.5,30.02,SSW,199,0.0,0.0,96,0.00,,---,0.00,VWS V14.01,2013-08-20 01:23:00,
2013-08-19 21:28:00,66.6,65.4,30.02,SSW,199,0.0,0.0,96,0.00,,---,0.00,VWS V14.01,2013-08-20 01:28:00,
2013-08-19 21:33:00,66.6,65.4,30.02,SSW,199,0.0,0.0,96,0.00,,---,0.00,VWS V14.01,2013-08-20 01:33:00,
2013-08-19 21:38:00,66.5,65.6,30.03,SSW,199,0.0,0.0,97,0.00,,---,0.00,VWS V14.01,2013-08-20 01:38:00,
2013-08-19 21:43:00,66.4,65.5,30.03,SSW,199,0.0,0.0,97,0.00,,---,0.00,VWS V14.01,2013-08-20 01:43:00,
2013-08-19 21:48:00,66.3,65.4,30.03,SSW,199,0.0,0.0,97,0.00,,---,0.00,VWS V14.01,2013-08-20 01:48:00,
2013-08-19 21:54:00,66.2,65.3,30.03,SSW,199,0.0,0.0,97,0.00,,---,0.00,VWS V14.01,2013-08-20 01:54:00,
2013-08-19 21:59:00,66.1,65.2,30.03,SSW,199,0.0,0.0,97,0.00,,---,0.00,VWS V14.01,2013-08-20 01:59:00,
2013-08-19 22:04:00,66.1,65.2,30.03,SSW,199,0.0,0.0,97,0.00,,---,0.00,VWS V14.01,2013-08-20 02:04:00,
2013-08-19 22:09:00,65.9,65.0,30.03,SSW,199,0.0,0.0,97,0.00,,---,0.00,VWS V14.01,2013-08-20 02:09:00,
2013-08-19 22:14:00,65.9,65.0,30.03,SSW,199,0.0,0.0,97,0.00,,---,0.00,VWS V14.01,2013-08-20 02:14:00,
2013-08-19 22:19:00,65.9,65.0,30.03,SSW,199,0.0,0.0,97,0.00,,---,0.00,VWS V14.01,2013-08-20 02:19:00,
2013-08-19 22:24:00,65.8,64.9,30.04,SSW,199,0.0,0.0,97,0.00,,---,0.00,VWS V14.01,2013-08-20 02:24:00,
2013-08-19 22:29:00,65.8,64.9,30.03,SSW,199,0.0,0.0,97,0.00,,---,0.00,VWS V14.01,2013-08-20 02:29:00,
2013-08-19 22:35:00,65.7,64.8,30.04,SSW,199,0.0,0.0,97,0.00,,---,0.00,VWS V14.01,2013-08-20 02:35:00,
2013-08-19 22:40:00,65.6,64.7,30.04,SSW,199,0.0,0.0,97,0.00,,---,0.00,VWS V14.01,2013-08-20 02:40:00,
2013-08-19 22:45:00,65.5,64.9,30.04,SSW,199,0.0,0.0,98,0.00,,---,0.00,VWS V14.01,2013-08-20 02:45:00,
2013-08-19 22:50:00,65.4,64.8,30.04,SSW,199,0.0,0.0,98,0.00,,---,0.00,VWS V14.01,2013-08-20 02:50:00,
2013-08-19 22:55:00,65.4,64.8,30.04,SSW,199,0.0,0.0,98,0.00,,---,0.00,VWS V14.01,2013-08-20 02:55:00,
2013-08-19 23:00:00,65.2,64.6,30.04,SSW,199,0.0,0.0,98,0.00,,---,0.00,VWS V14.01,2013-08-20 03:00:00,
2013-08-19 23:05:00,65.1,64.5,30.03,SSW,199,0.0,0.0,98,0.00,,---,0.00,VWS V14.01,2013-08-20 03:05:00,
2013-08-19 23:10:00,65.0,64.4,30.03,SSW,199,0.0,0.0,98,0.00,,---,0.00,VWS V14.01,2013-08-20 03:10:00,
2013-08-19 23:15:00,65.0,64.4,30.04,SSW,199,0.0,0.0,98,0.00,,---,0.00,VWS V14.01,2013-08-20 03:15:00,
2013-08-19 23:21:00,64.9,64.3,30.03,SSW,199,0.0,0.0,98,0.00,,---,0.00,VWS V14.01,2013-08-20 03:21:00,
2013-08-19 23:26:00,64.7,64.1,30.04,SSW,199,0.0,0.0,98,0.00,,---,0.00,VWS V14.01,2013-08-20 03:26:00,
2013-08-19 23:31:00,64.6,64.0,30.04,SSW,199,0.0,0.0,98,0.00,,---,0.00,VWS V14.01,2013-08-20 03:31:00,
2013-08-19 23:36:00,64.5,63.9,30.04,SSW,199,0.0,0.0,98,0.00,,---,0.00,VWS V14.01,2013-08-20 03:36:00,
2013-08-19 23:41:00,64.5,63.9,30.04,SSW,199,0.0,0.0,98,0.00,,---,0.00,VWS V14.01,2013-08-20 03:41:00,
2013-08-19 23:46:00,64.6,64.3,30.04,SSW,199,0.0,0.0,99,0.00,,---,0.00,VWS V14.01,2013-08-20 03:46:00,
2013-08-19 23:51:00,64.5,64.2,30.04,SSW,199,0.0,0.0,99,0.00,,---,0.00,VWS V14.01,2013-08-20 03:51:00,
2013-08-19 23:57:00,64.5,64.2,30.04,SSW,199,0.0,0.0,99,0.00,,---,0.00,VWS V14.01,2013-08-20 03:57:00,